User: anonymous   Login
Location: ????????
(38.4362°N, 22.8767°E)
Time: 00:20:54
(UTC+00:00)
Language:

Cosmos 1092 Rocket - Orbit

View from above orbital plane
View from above orbital plane
View from above satellite
View from above satellite

Ground track
Ground track

The orbit data is extracted from the following two-line orbital elements,

1 11327U 79030B   24168.62341851  .00000023  00000-0  80076-5 0  9995
2 11327  82.9497 197.7170 0026663 220.6535 260.6535 13.77079359270730
Epoch (UTC): 16 June 2024 14:57:43
Eccentricity: 0.0026663
inclination: 82.9497°
perigee height: 954 km
apogee height: 994 km
right ascension of ascending node: 197.7170°
argument of perigee: 220.6535°
revolutions per day: 13.77079359
mean anomaly at epoch: 260.6535°
orbit number at epoch: 27073

The dashed part of the orbit path shows where the satellite is in the earth's shadow,  

DLR